When you browse on this site, cookies collect data to enhance your experience and personalize the content and advertising you see.
Visit our Privacy Policy to learn more. By continuing to use the site, you agree to this use of cookies and data.
  • In Netherlands
  • List of Countries
  • For 7 days
  • Water Temperature
  • Satellite Maps
  • Weather Map
  • Weather Widgets
  • user-avatar
    Login

    Hourly Weather Rangpur

    Today, 25 March, Monday

    Time Temperature Precipitation Wind Pressure Humidity
    00:00 +27°C° 0 mm 2 mps 755 mmHg 44%
    01:00 +26°C° 0 mm 2 mps 755 mmHg 46%
    02:00 +26°C° 0 mm 2 mps 755 mmHg 49%
    03:00 +25°C° 0 mm 2 mps 755 mmHg 51%
    04:00 +25°C° 0 mm 2 mps 755 mmHg 53%
    05:00 +24°C° 0 mm 2 mps 755 mmHg 56%
    06:00 +24°C° 0 mm 3 mps 755 mmHg 58%
    07:00 +25°C° 0 mm 3 mps 756 mmHg 52%
    08:00 +27°C° 0 mm 3 mps 756 mmHg 46%
    09:00 +29°C° 0 mm 3 mps 756 mmHg 39%
    10:00 +31°C° 0 mm 3 mps 756 mmHg 34%
    11:00 +34°C° 0 mm 3 mps 756 mmHg 28%
    12:00 +35°C° 0 mm 2 mps 756 mmHg 23%
    13:00 +36°C° 0 mm 2 mps 755 mmHg 21%
    14:00 +37°C° 0 mm 2 mps 754 mmHg 19%
    15:00 +37°C° 0 mm 2 mps 754 mmHg 16%
    16:00 +37°C° 0 mm 2 mps 753 mmHg 18%
    17:00 +35°C° 0 mm 1 mps 753 mmHg 19%
    18:00 +32°C° 0 mm 0 mps 753 mmHg 20%
    19:00 +33°C° 0 mm 1 mps 754 mmHg 21%
    20:00 +32°C° 0 mm 1 mps 754 mmHg 22%
    21:00 +31°C° 0 mm 1 mps 755 mmHg 23%
    22:00 +30°C° 0 mm 2 mps 755 mmHg 25%
    23:00 +29°C° 0 mm 2 mps 755 mmHg 26%

    Tomorrow, 26 March, Tuesday

    Time Temperature Precipitation Wind Pressure Humidity
    00:00 +28°C° 0 mm 2 mps 755 mmHg 28%
    01:00 +28°C° 0 mm 2 mps 754 mmHg 30%
    02:00 +27°C° 0 mm 2 mps 754 mmHg 32%
    03:00 +26°C° 0 mm 3 mps 754 mmHg 35%
    04:00 +26°C° 0 mm 3 mps 754 mmHg 37%
    05:00 +25°C° 0 mm 3 mps 754 mmHg 39%
    06:00 +25°C° 0 mm 4 mps 754 mmHg 41%
    07:00 +27°C° 0 mm 4 mps 754 mmHg 39%
    08:00 +28°C° 0 mm 4 mps 755 mmHg 37%
    09:00 +30°C° 0 mm 5 mps 756 mmHg 35%
    10:00 +32°C° 0 mm 4 mps 756 mmHg 31%
    11:00 +34°C° 0 mm 4 mps 756 mmHg 28%
    12:00 +36°C° 0 mm 3 mps 756 mmHg 24%
    13:00 +36°C° 0 mm 3 mps 755 mmHg 22%
    14:00 +37°C° 0 mm 2 mps 755 mmHg 20%
    15:00 +38°C° 0 mm 2 mps 754 mmHg 18%
    16:00 +37°C° 0 mm 2 mps 754 mmHg 20%
    17:00 +35°C° 0 mm 1 mps 753 mmHg 21%
    18:00 +35°C° 0 mm 1 mps 753 mmHg 23%
    19:00 +34°C° 0 mm 1 mps 754 mmHg 23%
    20:00 +33°C° 0 mm 1 mps 755 mmHg 24%
    21:00 +32°C° 0 mm 2 mps 755 mmHg 25%
    22:00 +31°C° 0 mm 1 mps 755 mmHg 26%
    23:00 +31°C° 0 mm 1 mps 756 mmHg 28%

    Day after tomorrow, 27 March, Wednesday

    Time Temperature Precipitation Wind Pressure Humidity
    00:00 +30°C° 0 mm 1 mps 756 mmHg 29%
    01:00 +29°C° 0.2 mm 2 mps 755 mmHg 31%
    02:00 +28°C° 0.2 mm 2 mps 755 mmHg 34%
    03:00 +28°C° 0.2 mm 3 mps 755 mmHg 36%
    04:00 +27°C° 0 mm 2 mps 756 mmHg 38%
    05:00 +27°C° 0 mm 1 mps 756 mmHg 40%
    06:00 +27°C° 0 mm 1 mps 756 mmHg 42%
    07:00 +28°C° 0 mm 2 mps 757 mmHg 40%
    08:00 +29°C° 0 mm 3 mps 757 mmHg 39%
    09:00 +30°C° 0 mm 5 mps 758 mmHg 37%
    10:00 +32°C° 0 mm 4 mps 757 mmHg 35%
    11:00 +34°C° 0 mm 4 mps 757 mmHg 32%
    12:00 +35°C° 0 mm 3 mps 757 mmHg 29%
    13:00 +35°C° 0 mm 2 mps 756 mmHg 28%
    14:00 +35°C° 0 mm 1 mps 755 mmHg 27%
    15:00 +33°C° 0 mm 0 mps 754 mmHg 26%
    16:00 +35°C° 0 mm 1 mps 754 mmHg 27%
    17:00 +34°C° 0 mm 1 mps 754 mmHg 28%
    18:00 +34°C° 0 mm 2 mps 754 mmHg 29%
    19:00 +34°C° 0 mm 2 mps 754 mmHg 30%
    20:00 +32°C° 0 mm 2 mps 755 mmHg 31%
    21:00 +31°C° 0 mm 2 mps 755 mmHg 32%
    22:00 +30°C° 0 mm 2 mps 755 mmHg 33%
    23:00 +29°C° 0 mm 2 mps 755 mmHg 34%

    28 March, Thursday

    Time Temperature Precipitation Wind Pressure Humidity
    00:00 +29°C° 0 mm 2 mps 755 mmHg 36%
    01:00 +28°C° 0 mm 2 mps 755 mmHg 40%
    02:00 +27°C° 0 mm 2 mps 755 mmHg 44%
    03:00 +26°C° 0 mm 1 mps 755 mmHg 49%
    04:00 +26°C° 0 mm 2 mps 755 mmHg 51%
    05:00 +25°C° 0 mm 2 mps 755 mmHg 53%
    06:00 +25°C° 0 mm 2 mps 756 mmHg 56%
    07:00 +27°C° 0 mm 3 mps 756 mmHg 51%
    08:00 +28°C° 0 mm 3 mps 757 mmHg 47%
    09:00 +30°C° 0 mm 3 mps 757 mmHg 43%
    10:00 +31°C° 0 mm 3 mps 757 mmHg 38%
    11:00 +34°C° 0 mm 2 mps 756 mmHg 34%
    12:00 +35°C° 0 mm 2 mps 756 mmHg 30%
    13:00 +35°C° 0 mm 1 mps 755 mmHg 28%
    14:00 +35°C° 0 mm 1 mps 754 mmHg 26%
    15:00 +36°C° 0 mm 1 mps 753 mmHg 24%
    16:00 +36°C° 0 mm 1 mps 753 mmHg 25%
    17:00 +35°C° 0 mm 1 mps 753 mmHg 26%
    18:00 +35°C° 0 mm 1 mps 753 mmHg 27%
    19:00 +34°C° 0 mm 1 mps 754 mmHg 28%
    20:00 +33°C° 0 mm 1 mps 754 mmHg 28%
    21:00 +32°C° 0 mm 1 mps 755 mmHg 29%
    22:00 +31°C° 0 mm 1 mps 754 mmHg 32%
    23:00 +30°C° 0 mm 1 mps 754 mmHg 34%

    29 March, Friday

    Time Temperature Precipitation Wind Pressure Humidity
    00:00 +29°C° 0 mm 1 mps 754 mmHg 37%
    01:00 +29°C° 0 mm 1 mps 754 mmHg 39%
    02:00 +28°C° 0 mm 1 mps 753 mmHg 41%
    03:00 +27°C° 0 mm 1 mps 752 mmHg 42%
    04:00 +27°C° 0 mm 1 mps 753 mmHg 44%
    05:00 +27°C° 0 mm 2 mps 753 mmHg 45%
    06:00 +26°C° 0 mm 2 mps 753 mmHg 46%
    07:00 +28°C° 0 mm 2 mps 754 mmHg 42%
    08:00 +30°C° 0 mm 2 mps 755 mmHg 39%
    09:00 +31°C° 0 mm 2 mps 755 mmHg 35%
    10:00 +34°C° 0 mm 2 mps 755 mmHg 33%
    11:00 +35°C° 0 mm 2 mps 754 mmHg 30%
    12:00 +37°C° 0 mm 2 mps 754 mmHg 27%
    13:00 +37°C° 0 mm 2 mps 753 mmHg 26%
    14:00 +38°C° 0 mm 2 mps 753 mmHg 24%
    15:00 +38°C° 0 mm 2 mps 752 mmHg 23%
    16:00 +38°C° 0 mm 2 mps 752 mmHg 24%
    17:00 +37°C° 0 mm 2 mps 752 mmHg 26%
    18:00 +36°C° 0 mm 2 mps 752 mmHg 27%
    19:00 +35°C° 0 mm 2 mps 753 mmHg 29%
    20:00 +34°C° 0 mm 3 mps 753 mmHg 31%
    21:00 +34°C° 0 mm 3 mps 754 mmHg 32%
    22:00 +33°C° 0 mm 3 mps 754 mmHg 33%
    23:00 +32°C° 0 mm 2 mps 754 mmHg 34%

    30 March, Saturday

    Time Temperature Precipitation Wind Pressure Humidity
    00:00 +31°C° 0 mm 2 mps 754 mmHg 36%
    01:00 +30°C° 0 mm 2 mps 753 mmHg 37%
    02:00 +30°C° 0 mm 2 mps 753 mmHg 39%
    03:00 +29°C° 0 mm 3 mps 753 mmHg 41%
    04:00 +28°C° 0.8 mm 3 mps 753 mmHg 46%
    05:00 +27°C° 0.8 mm 3 mps 753 mmHg 52%
    06:00 +26°C° 0.8 mm 3 mps 754 mmHg 57%
    07:00 +27°C° 0.1 mm 3 mps 754 mmHg 56%
    08:00 +28°C° 0.1 mm 3 mps 755 mmHg 55%
    09:00 +29°C° 0.1 mm 3 mps 756 mmHg 54%
    10:00 +30°C° 0.1 mm 3 mps 755 mmHg 50%
    11:00 +33°C° 0.1 mm 3 mps 755 mmHg 45%
    12:00 +34°C° 0.1 mm 3 mps 755 mmHg 41%
    13:00 +35°C° 0 mm 3 mps 754 mmHg 39%
    14:00 +36°C° 0 mm 3 mps 753 mmHg 37%
    15:00 +37°C° 0 mm 3 mps 752 mmHg 35%
    16:00 +36°C° 0.3 mm 3 mps 752 mmHg 37%
    17:00 +35°C° 0.3 mm 3 mps 753 mmHg 39%
    18:00 +35°C° 0.3 mm 3 mps 753 mmHg 41%
    19:00 +33°C° 1.3 mm 4 mps 753 mmHg 48%
    20:00 +30°C° 1.3 mm 5 mps 753 mmHg 54%
    21:00 +29°C° 1.3 mm 6 mps 754 mmHg 60%
    22:00 +28°C° 1.8 mm 5 mps 754 mmHg 63%
    23:00 +28°C° 1.8 mm 4 mps 754 mmHg 67%
    Show more